Time,TemperatureF,DewpointF,PressureIn,WindDirection,WindDirectionDegrees,WindSpeedMPH,WindSpeedGustMPH,Humidity,HourlyPrecipIn,Conditions,Clouds,dailyrainin,SoftwareType,DateUTC
2013-06-20 00:01:00,48.0,39.0,-100.00,SSW,210,19.0,23.0,71,-99.99,,,0.00,,2013-06-20 06:01:00,
2013-06-20 00:11:00,48.0,39.0,-100.00,SSW,210,19.0,23.0,71,-99.99,,,0.00,,2013-06-20 06:11:00,
2013-06-20 00:22:00,48.0,39.0,-100.00,SSW,210,19.0,23.0,71,-99.99,,,0.00,,2013-06-20 06:22:00,
2013-06-20 01:53:00,49.0,38.0,-100.00,SSW,210,17.0,22.0,66,-99.99,,,0.00,,2013-06-20 07:53:00,
2013-06-20 02:02:00,49.0,38.0,-100.00,SSW,210,17.0,22.0,66,-99.99,,,0.00,,2013-06-20 08:02:00,
2013-06-20 02:11:00,49.0,38.0,-100.00,SSW,210,17.0,22.0,66,-99.99,,,0.00,,2013-06-20 08:11:00,
2013-06-20 02:22:00,49.0,38.0,-100.00,SSW,210,17.0,22.0,66,-99.99,,,0.00,,2013-06-20 08:22:00,
2013-06-20 02:53:00,46.0,40.0,-100.00,SSW,205,20.0,22.0,78,-99.99,,,0.00,,2013-06-20 08:53:00,
2013-06-20 03:01:00,46.0,40.0,-100.00,SSW,205,20.0,22.0,78,-99.99,,,0.00,,2013-06-20 09:01:00,
2013-06-20 03:11:00,46.0,40.0,-100.00,SSW,205,20.0,22.0,78,-99.99,,,0.00,,2013-06-20 09:11:00,
2013-06-20 03:22:00,46.0,40.0,-100.00,SSW,205,20.0,22.0,78,-99.99,,,0.00,,2013-06-20 09:22:00,
2013-06-20 03:52:00,45.0,37.0,-100.00,SSW,195,21.0,24.0,72,-99.99,,,0.01,,2013-06-20 09:52:00,
2013-06-20 04:01:00,45.0,37.0,-100.00,SSW,195,21.0,24.0,72,-99.99,,,0.01,,2013-06-20 10:01:00,
2013-06-20 04:11:00,45.0,37.0,-100.00,SSW,195,21.0,24.0,72,-99.99,,,0.01,,2013-06-20 10:11:00,
2013-06-20 04:22:00,45.0,37.0,-100.00,SSW,195,21.0,24.0,72,-99.99,,,0.01,,2013-06-20 10:22:00,
2013-06-20 08:53:00,47.0,34.0,-100.00,SSW,210,24.0,27.0,60,-99.99,,,0.00,,2013-06-20 14:53:00,
2013-06-20 09:01:00,47.0,34.0,-100.00,SSW,210,24.0,27.0,60,-99.99,,,0.00,,2013-06-20 15:01:00,
2013-06-20 09:11:00,47.0,34.0,-100.00,SSW,210,24.0,27.0,60,-99.99,,,0.00,,2013-06-20 15:11:00,
2013-06-20 09:22:00,47.0,34.0,-100.00,SSW,210,24.0,27.0,60,-99.99,,,0.00,,2013-06-20 15:22:00,
2013-06-20 09:53:00,47.0,34.0,-100.00,SSW,210,24.0,29.0,60,-99.99,,,0.00,,2013-06-20 15:53:00,
2013-06-20 10:01:00,47.0,34.0,-100.00,SSW,210,24.0,29.0,60,-99.99,,,0.00,,2013-06-20 16:01:00,
2013-06-20 10:11:00,47.0,34.0,-100.00,SSW,210,24.0,29.0,60,-99.99,,,0.00,,2013-06-20 16:11:00,
2013-06-20 11:53:00,48.0,34.0,-100.00,SSW,205,18.0,24.0,57,-99.99,,,0.00,,2013-06-20 17:53:00,
2013-06-20 12:01:00,48.0,34.0,-100.00,SSW,205,18.0,24.0,57,-99.99,,,0.00,,2013-06-20 18:01:00,
2013-06-20 12:11:00,48.0,34.0,-100.00,SSW,205,18.0,24.0,57,-99.99,,,0.00,,2013-06-20 18:11:00,
2013-06-20 12:22:00,48.0,34.0,-100.00,SSW,205,18.0,24.0,57,-99.99,,,0.00,,2013-06-20 18:22:00,
2013-06-20 12:53:00,51.0,35.0,-100.00,South,190,17.0,20.0,55,-99.99,,,0.00,,2013-06-20 18:53:00,
2013-06-20 13:01:00,51.0,35.0,-100.00,South,190,17.0,20.0,55,-99.99,,,0.00,,2013-06-20 19:01:00,
2013-06-20 13:11:00,51.0,35.0,-100.00,South,190,17.0,20.0,55,-99.99,,,0.00,,2013-06-20 19:11:00,
2013-06-20 13:22:00,51.0,35.0,-100.00,South,190,17.0,20.0,55,-99.99,,,0.00,,2013-06-20 19:22:00,